Location: Casone le Fosse
(44.6547°N, 12.1103°E)
Time: 04:00:29
(UTC+00:00)

Cosmos 1408 - Pass Details

Date: 29 October 2020
Orbit: 470 x 492 km, 82.6° (Epoch: 01 December)

Event Time Altitude Azimuth Distance (km) Brightness Sun altitude
Rises 18:13:13 0° 342° (NNW) 2,559 6.5 -23.5°
Reaches altitude 10° 18:15:27 10° 333° (NNW) 1,677 5.7 -23.8°
Maximum altitude 18:18:46 33° 268° (W) 844 4.3 -24.4°
Drops below altitude 10° 18:22:05 10° 203° (SSW) 1,675 5.5 -25.0°
Sets 18:24:18 0° 194° (SSW) 2,554 6.3 -25.4°
